Wind_Speed
23 23 23 24 26 27 27 27 27 27 27 29 29 29 30 30 30 30 31 32 32 33 34 35 35 36 37 37 37 37 37 37 37 37 38 38 37 36
23 24 24 25 26 26 27 27 28 28 28 28 29 29 30 31 31 31 32 32 33 33 33 34 35 35 36 37 38 38 38 39 39 39 39 40 40 39
24 24 24 25 26 26 26 26 27 28 27 27 28 29 30 31 32 32 33 32 32 32 33 33 34 35 36 37 38 39 39 39 40 41 41 41 41 41
23 24 24 24 25 25 26 27 28 28 28 27 28 29 30 31 31 32 32 32 31 31 32 33 34 35 35 36 37 38 38 39 40 41 42 42 42 42
22 23 24 24 24 25 26 27 28 29 29 29 29 30 30 30 30 30 30 30 30 31 32 33 33 35 36 36 37 37 38 39 40 41 42 42 42 42
21 22 23 23 24 25 26 27 28 29 29 29 29 30 30 30 29 29 29 30 31 32 33 33 33 35 36 36 37 37 38 39 39 40 40 42 42 43
21 22 23 23 24 24 26 27 29 29 29 29 29 29 29 29 29 30 30 30 31 32 33 33 34 35 35 36 36 36 37 38 39 40 40 41 42 43
21 22 23 24 24 25 27 29 29 29 29 29 30 29 28 28 29 30 31 31 31 32 33 33 34 35 35 36 37 37 37 37 38 39 40 41 41 42
21 22 23 24 25 27 28 29 29 29 29 30 29 29 28 29 30 30 31 31 32 32 32 33 33 34 35 36 36 37 37 38 38 39 40 40 40 41
22 23 24 25 25 27 28 29 29 29 29 29 29 29 30 30 30 30 30 31 31 31 32 33 33 33 33 33 34 34 35 36 37 37 38 39 40 41
22 24 25 26 27 28 28 29 29 29 30 30 30 30 30 30 30 30 30 30 30 30 31 31 31 31 31 32 32 32 33 33 34 35 36 37 39 40
23 25 26 27 28 29 29 30 29 30 30 30 30 31 31 31 31 30 29 29 29 29 30 29 29 29 29 30 31 31 32 32 32 32 33 34 35 36
23 25 27 28 29 30 30 31 31 30 30 30 31 31 31 31 30 29 28 28 28 28 28 28 27 27 28 27 28 28 28 29 29 30 32 33 33 34
24 26 28 29 30 31 31 31 31 31 30 30 30 30 30 29 29 28 27 27 28 27 26 26 26 26 26 25 25 25 25 26 28 29 31 32 33 33
25 27 28 30 31 32 32 31 31 30 30 30 30 30 30 29 28 27 26 26 27 27 26 24 24 24 23 23 22 22 22 23 25 26 27 29 31 31
26 27 29 30 31 32 32 31 31 30 30 30 29 30 29 28 27 27 26 25 25 25 25 24 22 21 21 21 21 21 21 21 22 24 25 26 27 27
26 28 29 31 32 32 32 32 31 30 30 30 30 29 29 27 26 25 25 25 25 24 23 23 22 21 20 20 20 21 21 21 21 21 22 23 25 25
28 29 30 31 32 32 32 32 31 31 31 30 30 29 28 27 26 25 24 24 24 23 22 21 21 21 21 21 21 20 21 20 20 20 20 20 20 22
28 29 31 31 32 32 32 32 32 31 31 31 31 30 29 28 27 27 26 25 25 24 22 21 21 20 20 20 19 19 19 19 19 19 18 18 18 19
29 30 31 32 32 32 31 32 32 32 32 31 30 29 28 28 28 27 26 25 24 22 22 21 20 20 20 19 18 17 17 17 17 16 16 17 17 18
29 31 31 32 32 31 31 31 32 32 32 31 30 29 28 27 27 26 26 25 23 22 20 20 20 20 19 18 17 16 15 15 15 15 15 16 16 16
29 30 31 32 31 30 30 30 30 31 31 30 29 28 27 27 27 26 26 24 22 21 20 19 19 19 18 17 16 15 14 15 15 14 14 14 14 14
29 30 31 31 30 29 29 29 30 30 31 30 29 28 27 27 27 27 26 25 23 22 20 19 19 18 17 16 15 15 14 13 13 13 14 14 14 13
Wind_Direction
294 295 294 293 294 293 292 292 291 291 292 291 290 289 287 285 284 283 282 280 278 276 273 271 268 266 264 263 262 261 260 259 258 256 255 253 253 252
296 296 295 295 296 296 295 294 294 294 293 292 290 289 287 287 286 285 283 282 280 278 276 273 270 267 265 264 262 262 260 259 258 257 256 254 253 253
296 296 297 297 298 298 298 297 298 298 297 296 292 289 288 287 286 285 284 282 280 279 278 276 272 269 268 266 263 262 260 259 258 257 256 255 254 253
298 298 298 298 299 299 299 299 299 298 299 297 294 292 291 290 288 287 285 283 281 280 279 277 274 272 269 267 265 263 261 259 258 257 256 255 254 252
303 302 302 300 300 301 302 303 302 301 301 299 296 294 293 292 290 287 286 284 283 282 280 279 276 274 271 269 267 264 262 261 259 258 257 255 253 252
306 305 306 305 304 304 305 305 305 305 303 302 300 298 295 293 291 289 286 284 284 283 281 279 277 276 273 271 268 266 263 260 258 257 257 255 254 252
310 310 311 310 310 309 308 307 307 307 305 304 303 300 298 295 293 291 289 286 285 285 283 279 277 277 275 272 269 266 263 260 258 256 256 255 254 252
315 316 315 313 313 313 311 311 310 310 310 309 308 305 302 298 295 293 291 288 286 284 283 281 279 278 276 273 269 266 264 261 259 257 256 255 254 252
319 320 320 319 317 315 314 314 314 314 313 312 310 309 305 303 298 295 294 293 291 288 285 283 281 279 277 273 270 267 264 262 260 259 257 256 254 252
322 323 324 322 321 319 317 316 317 316 314 313 312 310 307 305 302 299 295 294 293 290 289 287 285 282 279 275 272 268 266 264 262 259 258 255 253 252
326 328 328 326 324 323 321 321 320 318 316 315 314 313 310 308 305 303 300 297 294 291 290 289 286 283 280 276 273 269 267 265 263 261 258 256 255 253
329 330 331 330 329 328 326 325 323 322 320 318 316 314 313 310 308 306 303 301 299 297 292 289 286 283 280 278 276 272 268 266 264 260 257 256 256 255
331 331 331 331 331 330 328 327 325 323 322 320 318 316 315 313 311 308 306 304 303 302 297 292 289 287 285 280 276 272 271 269 266 263 259 257 257 256
334 333 332 333 333 332 331 329 328 326 325 323 322 320 318 316 314 311 309 308 307 305 303 299 297 294 288 283 278 275 275 272 269 266 263 259 258 256
334 333 334 334 333 333 333 332 330 329 328 327 326 325 323 321 319 317 314 311 309 308 306 303 300 297 293 289 285 280 277 273 272 269 266 262 258 256
337 336 337 336 336 336 336 334 333 332 332 331 330 328 327 325 323 321 318 315 313 311 308 307 306 300 295 292 287 282 280 276 274 271 267 263 260 257
340 339 339 338 337 337 337 337 336 334 334 334 333 333 332 330 328 325 322 320 317 314 310 306 305 302 298 294 291 284 281 279 280 277 271 267 262 256
341 341 340 339 339 339 340 340 339 338 337 335 335 335 335 334 332 330 328 325 322 317 312 307 304 301 298 296 293 288 285 283 282 279 274 266 261 258
340 340 340 339 339 340 340 341 341 341 341 340 338 337 336 335 334 333 331 327 325 323 320 314 310 306 303 299 297 293 288 285 283 279 274 268 263 262
339 340 340 341 341 341 341 342 344 344 343 342 342 342 340 338 337 337 336 334 332 329 325 320 317 313 310 305 302 300 294 289 284 280 275 269 266 266
338 339 340 340 341 342 343 345 346 347 347 346 345 345 344 343 342 341 340 338 337 335 332 328 325 322 318 311 306 302 296 290 285 280 276 272 269 265
341 341 341 341 342 343 344 346 347 348 349 349 348 348 348 347 347 346 345 343 342 340 337 335 332 329 325 320 315 309 302 294 288 282 278 276 272 268
342 343 343 343 344 345 345 346 348 349 350 351 351 351 351 351 351 350 348 347 346 345 342 339 337 335 331 327 323 318 310 301 295 288 280 276 274 271
Height
5761 5759 5757 5755 5753 5750 5748 5746 5744 5742 5740 5736 5733 5730 5727 5726 5724 5722 5720 5719 5718 5717 5716 5716 5716 5716 5717 5718 5720 5721 5722 5724 5725 5727 5729 5731 5733 5735
5755 5753 5751 5748 5746 5743 5740 5737 5735 5733 5731 5728 5724 5721 5719 5716 5714 5713 5711 5709 5708 5706 5706 5705 5705 5705 5706 5707 5708 5709 5711 5713 5714 5716 5717 5720 5722 5725
5749 5747 5744 5742 5739 5736 5733 5730 5727 5724 5722 5719 5716 5713 5710 5708 5705 5703 5701 5699 5698 5696 5695 5694 5694 5694 5695 5695 5696 5697 5699 5700 5702 5704 5706 5708 5711 5713
5743 5741 5738 5735 5732 5729 5726 5722 5719 5716 5713 5711 5708 5704 5701 5698 5696 5693 5691 5689 5688 5687 5685 5684 5684 5683 5683 5684 5684 5685 5686 5688 5690 5692 5694 5697 5699 5701
5737 5734 5731 5728 5726 5723 5719 5715 5712 5708 5705 5702 5699 5696 5692 5689 5687 5684 5682 5680 5678 5677 5675 5674 5673 5672 5672 5672 5672 5673 5674 5676 5678 5679 5681 5683 5686 5689
5731 5729 5725 5722 5719 5716 5713 5709 5705 5701 5697 5693 5690 5687 5683 5680 5677 5675 5673 5671 5669 5667 5665 5663 5662 5661 5661 5660 5661 5661 5662 5663 5664 5666 5668 5670 5673 5676
5727 5724 5720 5717 5713 5710 5706 5702 5698 5694 5689 5685 5681 5678 5675 5671 5668 5666 5663 5661 5659 5657 5655 5653 5651 5650 5649 5648 5648 5648 5649 5650 5652 5653 5655 5657 5660 5663
5723 5719 5715 5711 5708 5704 5700 5696 5691 5686 5682 5677 5673 5669 5666 5662 5659 5656 5654 5651 5650 5648 5644 5643 5640 5638 5637 5637 5636 5636 5636 5637 5639 5640 5642 5644 5647 5650
5719 5715 5711 5707 5703 5699 5694 5689 5684 5679 5674 5670 5665 5661 5657 5654 5650 5647 5644 5641 5638 5636 5633 5632 5629 5627 5625 5624 5623 5623 5624 5625 5626 5627 5629 5632 5634 5636
5715 5711 5707 5703 5698 5693 5688 5683 5677 5672 5667 5662 5658 5653 5648 5644 5640 5637 5633 5631 5628 5625 5622 5620 5618 5616 5614 5612 5611 5611 5612 5612 5613 5615 5616 5619 5621 5623
5711 5707 5703 5698 5693 5688 5682 5677 5671 5665 5659 5654 5649 5644 5639 5635 5630 5627 5623 5620 5618 5615 5612 5609 5607 5605 5603 5602 5600 5600 5600 5600 5602 5603 5604 5606 5608 5610
5708 5703 5698 5693 5688 5682 5676 5670 5664 5659 5653 5647 5642 5636 5631 5626 5621 5617 5613 5610 5607 5605 5602 5598 5596 5594 5593 5592 5590 5589 5589 5589 5590 5591 5593 5594 5596 5598
5704 5699 5694 5689 5683 5677 5670 5664 5658 5652 5646 5640 5634 5629 5623 5618 5613 5608 5604 5601 5597 5595 5591 5588 5586 5583 5582 5581 5580 5579 5579 5579 5579 5580 5582 5583 5585 5587
5700 5695 5690 5684 5677 5671 5665 5658 5652 5645 5639 5633 5627 5621 5616 5610 5605 5600 5596 5592 5588 5585 5582 5579 5576 5574 5572 5571 5571 5570 5569 5569 5569 5570 5571 5572 5574 5575
5696 5691 5685 5679 5673 5666 5659 5652 5646 5639 5633 5627 5621 5614 5608 5603 5598 5593 5589 5585 5581 5577 5573 5571 5568 5565 5563 5562 5562 5561 5561 5561 5561 5561 5561 5562 5564 5565
5692 5687 5681 5675 5668 5661 5654 5647 5640 5634 5627 5621 5615 5608 5602 5597 5591 5587 5582 5578 5575 5570 5566 5563 5561 5558 5556 5555 5554 5553 5553 5552 5552 5552 5552 5553 5554 5555
5689 5683 5677 5671 5664 5657 5650 5643 5636 5629 5622 5616 5609 5603 5597 5591 5586 5581 5577 5572 5568 5565 5561 5558 5554 5552 5550 5549 5548 5546 5545 5545 5544 5544 5544 5545 5545 5547
5685 5679 5673 5667 5660 5653 5646 5639 5632 5625 5618 5611 5605 5599 5593 5587 5581 5576 5572 5567 5563 5559 5556 5553 5550 5547 5546 5543 5542 5540 5539 5538 5537 5537 5536 5537 5538 5539
5682 5676 5669 5663 5656 5649 5642 5635 5628 5621 5614 5607 5600 5594 5588 5583 5577 5572 5567 5563 5558 5554 5550 5547 5544 5542 5540 5538 5536 5533 5532 5531 5530 5530 5530 5531 5531 5532
5678 5672 5666 5659 5652 5645 5638 5631 5624 5617 5610 5603 5596 5590 5585 5579 5574 5569 5563 5559 5554 5550 5546 5542 5539 5536 5533 5531 5530 5528 5526 5525 5524 5524 5524 5525 5525 5526
5675 5668 5662 5655 5648 5642 5635 5628 5621 5614 5607 5600 5594 5588 5582 5576 5571 5565 5560 5555 5551 5546 5542 5539 5535 5531 5528 5526 5524 5523 5521 5520 5519 5519 5519 5519 5520 5520
5671 5665 5658 5651 5645 5638 5632 5625 5619 5612 5605 5598 5592 5586 5580 5574 5569 5563 5557 5552 5547 5543 5539 5535 5531 5528 5524 5522 5520 5518 5517 5515 5514 5514 5514 5514 5514 5515
5668 5661 5655 5648 5641 5635 5629 5623 5616 5610 5603 5596 5590 5584 5578 5572 5567 5561 5555 5550 5545 5540 5536 5532 5528 5525 5521 5518 5516 5514 5512 5511 5510 5510 5509 5509 5510 5510